logo tempoitalia

Diretta Meteo Ulyanovsk, Russialunedì 31 agosto ore 08:00

Mappa
Sereno 16 °C Sereno 24 Ore: T.min 10 T.max 19
Ponente Nord Km/h 7.2 Punto di rugiada: 12 °C Umidità: 77% Visibilità: 10 Km
Il sole sorge alle: 04:52 Il sole tramonta alle: 18:41
31 Agosto 2026 08:00 tempo osservato: Sereno Sereno 16 77 1022 vento: Nord N 7.2
31 Agosto 2026 07:00 tempo osservato: Sereno Sereno 15 87 1022 vento: Nord SO 10.8
31 Agosto 2026 06:00 tempo osservato: Sereno Sereno 13 100 1022 vento: Nord N 3.6
31 Agosto 2026 05:00 tempo osservato: Sereno Sereno 12 100 1022 vento: Nord N 7.2
31 Agosto 2026 04:00 tempo osservato: Sereno Sereno 12 100 1022 vento: Nord N 7.2
31 Agosto 2026 03:00 tempo osservato: Sereno Sereno 12 100 1022 vento: Nord N 3.6
31 Agosto 2026 02:00 tempo osservato: Sereno Sereno 12 93 1022 vento: Nord N 7.2
31 Agosto 2026 01:00 tempo osservato: Sereno Sereno 12 93 1022 vento: Nord N 7.2
31 Agosto 2026 00:00 tempo osservato: Sereno Sereno 10 100 1022 vento: Nord SO 10.8
30 Agosto 2026 23:00 tempo osservato: Sereno Sereno 10 87 1022 vento: Nord SO 10.8
30 Agosto 2026 22:00 tempo osservato: Sereno Sereno 11 76 1022 vento: Nord SO 10.8
30 Agosto 2026 21:00 tempo osservato: Sereno Sereno 12 71 1022 vento: Nord N 7.2
30 Agosto 2026 20:00 tempo osservato: Sereno Sereno 13 66 1022 vento: Nord N 7.2
30 Agosto 2026 19:00 tempo osservato: Sereno Sereno 15 58 1022 vento: Nord N 7.2
30 Agosto 2026 18:00 tempo osservato: Sereno Sereno 17 51 1022 vento: Nord N 7.2
30 Agosto 2026 17:00 tempo osservato: Sereno Sereno 19 45 1022 vento: Nord NO 14.4
30 Agosto 2026 16:00 tempo osservato: Sereno Sereno 19 42 1022 vento: Nord NO 10.8
30 Agosto 2026 15:00 tempo osservato: Sereno Sereno 19 42 1023 vento: Nord NO 14.4
30 Agosto 2026 14:00 tempo osservato: Sereno Sereno 19 42 1023 vento: Nord O/NO 14.4
30 Agosto 2026 13:00 tempo osservato: Sereno Sereno 19 45 1024 vento: Nord O/NO 14.4
30 Agosto 2026 12:00 tempo osservato: Sereno Sereno 18 45 1024 vento: Nord O/NO 14.4
30 Agosto 2026 11:00 tempo osservato: Sereno Sereno 17 45 1024 vento: Nord O/NO 14.4
30 Agosto 2026 10:00 tempo osservato: Sereno Sereno 17 48 1024 vento: Nord NO 14.4
30 Agosto 2026 09:00 tempo osservato: Sereno Sereno 17 55 1024 vento: Nord O/NO 10.8